Terminal Aerodrome Forecast
Issued by NWS

Home | Current Version | Previous Version | Graphics & Text | Print | Product List | Glossary On
Versions: 1 2 3 4 5 6 7 8 9 10 11 12 13 14 15 16 17 18 19 20 21 22 23 24
000
FTUS43 KLOT 231502 AAA
TAFORD
TAF AMD
KORD 231502Z 2315/2418 18005KT P6SM SKC
     FM231900 11009KT P6SM SCT050
     FM240200 15005KT P6SM FEW250=

USA.gov is the U.S. government's official web portal to all federal, state and local government web resources and services.